Theta_e
352 358 364 363 361 360 359 360 359 359 359 358 358 358 359 358 357 357 357 357 358 357 357 357 357 356 356 355 355 355 354 354 353 348 347 348 350 350 348 347 346 342 346
353 358 364 364 362 359 359 359 359 359 359 358 357 357 357 357 358 358 357 357 357 357 356 355 355 354 354 353 352 352 353 353 353 353 347 345 349 350 348 348 347 344 346
353 357 360 363 361 359 359 359 359 359 358 357 357 356 356 356 356 356 356 355 354 353 353 352 352 351 351 351 352 353 353 353 354 355 354 347 342 350 349 349 349 348 347
353 352 356 362 361 359 359 359 360 359 358 357 357 356 356 356 356 355 355 355 354 354 353 353 353 353 354 354 354 355 354 354 354 355 348 349 344 349 350 349 349 348 347
349 351 355 361 361 359 358 359 359 358 358 357 356 355 355 354 355 356 355 355 355 355 355 355 355 355 355 355 355 355 356 356 355 352 345 341 343 348 351 350 351 349 347
347 350 359 361 361 360 359 359 358 357 357 356 355 355 355 355 356 356 356 355 355 355 355 356 356 357 357 358 358 357 357 356 355 344 344 344 342 351 354 351 352 350 347
348 352 356 361 360 361 359 358 358 357 357 357 357 356 357 357 357 357 357 356 355 354 355 355 357 358 357 356 356 357 356 355 348 341 343 341 342 351 354 353 353 352 349
346 349 351 359 360 359 360 359 358 357 356 356 356 357 357 357 357 358 358 358 357 357 356 355 357 357 356 356 356 356 356 354 349 346 346 344 346 353 356 353 356 352 350
343 345 345 349 355 358 358 357 356 355 355 354 354 355 356 357 357 358 358 358 358 357 357 356 357 356 356 356 356 355 355 353 346 346 338 340 346 355 357 354 354 354 351
342 342 343 346 348 347 348 357 356 356 356 355 355 356 356 357 357 357 356 350 357 357 357 356 355 355 355 354 354 353 354 353 335 331 336 341 353 354 357 354 353 353 354
342 341 342 343 345 345 346 349 356 358 356 356 355 356 353 342 341 340 351 356 357 357 355 352 354 353 353 352 352 352 351 341 332 335 337 345 347 352 350 349 349 353 354
338 341 343 343 345 346 350 344 348 349 350 348 347 341 328 329 332 334 342 344 344 350 350 349 346 345 342 342 344 345 339 339 336 335 336 340 343 344 347 347 349 355 356
338 332 333 341 336 342 330 341 343 344 344 339 330 326 324 329 325 324 324 322 322 331 327 325 324 328 325 329 339 339 337 336 333 335 333 338 341 344 344 348 352 356 353
336 327 329 331 329 328 326 326 326 326 329 330 325 327 324 326 322 321 320 319 320 319 316 317 317 320 322 326 334 335 336 335 333 334 335 340 342 343 344 347 347 348 352
328 329 329 330 328 326 325 326 323 323 325 327 326 325 326 324 322 321 318 317 319 318 316 314 316 318 317 318 318 323 329 333 333 334 334 340 341 340 342 342 342 346 352
330 328 327 329 328 328 324 323 325 323 324 323 323 325 326 321 323 322 318 317 318 318 317 314 316 316 314 315 315 316 319 324 330 334 333 334 341 342 340 343 344 349 351
329 330 329 329 331 325 324 326 323 321 325 321 323 326 325 324 323 322 319 318 317 317 316 315 317 315 314 315 313 314 313 316 322 326 326 328 329 341 346 345 347 348 349
328 327 329 332 328 326 324 323 323 323 324 325 324 322 324 325 323 321 320 320 323 319 317 317 316 315 314 313 311 312 312 314 318 318 320 326 328 328 337 341 345 347 345
327 325 326 327 325 327 325 325 327 327 325 323 322 321 323 326 324 321 320 320 321 318 317 318 319 315 315 312 314 314 313 312 313 317 317 318 320 326 334 338 336 337 336
325 325 325 326 326 326 326 329 327 323 320 319 318 319 318 319 320 319 317 316 317 315 317 317 315 314 317 316 316 314 311 311 312 313 315 319 318 331 333 332 330 328 334
326 324 323 324 325 327 327 326 322 318 315 315 314 319 317 317 316 313 313 314 316 314 312 312 312 311 310 311 309 310 310 312 310 310 312 312 320 328 329 330 332 332 330
325 323 327 329 325 324 322 321 318 315 314 314 312 314 315 316 315 315 312 311 311 310 310 310 310 309 309 311 307 305 303 307 307 309 309 314 319 322 325 328 327 331 331
328 328 328 325 321 321 320 318 314 312 313 312 311 311 314 315 315 314 313 311 310 310 310 309 309 312 310 309 308 307 302 301 305 307 308 313 311 317 319 320 323 326 327
327 328 326 323 319 318 317 315 312 310 309 309 310 310 311 313 313 313 312 312 310 309 308 311 314 312 312 305 305 312 313 311 306 302 305 307 313 316 315 317 318 324 326
325 325 320 320 319 318 316 314 312 310 310 310 310 309 309 309 311 312 311 309 309 309 309 310 309 305 304 303 303 303 304 305 310 307 301 302 308 309 313 315 318 323 326
319 318 317 316 314 315 315 314 312 310 308 307 307 306 306 307 307 308 309 308 310 308 307 307 306 306 306 307 307 304 302 302 302 303 301 304 304 306 311 313 317 319 323
Wind_Speed
4 5 11 12 13 13 13 12 11 10 10 10 10 10 10 9 9 9 9 8 7 9 9 9 9 9 9 9 9 9 8 8 9 8 7 7 7 13 13 15 14 10 14
7 7 12 12 13 13 13 11 10 9 9 9 8 8 8 8 8 8 7 8 8 8 8 8 8 8 8 9 9 9 9 8 6 4 4 4 6 10 11 13 16 11 13
9 8 10 12 12 12 12 11 10 8 8 8 7 7 7 6 6 6 5 5 5 4 4 4 5 5 6 7 8 9 8 7 7 7 5 3 3 7 10 12 16 16 14
9 5 7 12 11 12 11 10 8 8 7 6 6 6 5 3 2 2 2 2 2 2 3 3 4 5 6 6 7 9 10 9 8 9 4 5 5 9 10 11 14 16 14
6 4 6 12 11 11 10 8 8 7 6 6 5 3 2 1 1 2 2 3 3 4 4 5 5 5 6 7 8 8 10 11 10 8 6 5 6 9 13 13 13 16 15
7 6 8 11 11 10 10 9 8 7 6 4 3 1 2 2 3 4 5 6 6 7 7 7 8 7 8 8 8 9 10 11 12 2 4 7 2 10 15 15 14 17 16
8 7 8 11 12 11 11 9 7 6 5 4 2 3 4 5 6 7 7 8 8 8 8 9 9 8 7 8 9 9 11 11 7 2 1 4 4 10 16 13 13 16 19
11 7 6 11 10 9 9 9 9 8 7 5 4 5 5 6 8 8 9 10 9 10 11 11 9 9 10 9 9 10 11 11 8 4 4 4 7 13 18 18 17 15 17
9 7 4 5 8 10 10 9 8 7 6 5 5 5 7 7 9 10 10 11 10 11 10 10 11 10 11 11 11 11 11 11 6 2 4 4 9 9 19 17 17 17 17
7 6 6 5 4 5 4 8 8 7 6 5 6 7 7 7 8 11 9 7 10 9 9 9 11 12 12 12 11 12 11 12 2 2 3 4 10 9 13 9 10 15 16
5 3 5 5 5 4 4 5 7 7 6 6 6 7 4 2 4 6 7 7 7 8 8 8 10 9 10 8 8 8 5 2 4 2 2 10 9 6 6 8 6 18 16
5 6 5 5 5 4 5 4 2 4 3 2 3 1 3 4 3 5 7 10 10 10 6 6 9 9 8 4 2 6 2 4 2 3 2 8 6 7 6 12 16 17 18
5 6 6 6 1 5 2 2 1 2 2 1 2 4 2 3 3 3 2 3 3 6 3 5 4 4 6 4 4 3 4 3 2 1 3 5 9 8 5 13 14 12 18
2 6 7 6 4 4 2 4 3 2 1 1 3 3 2 1 1 1 1 2 3 1 2 3 3 2 6 6 5 6 5 4 3 2 4 10 10 15 7 9 10 16 19
5 4 8 8 4 4 5 3 3 3 2 4 1 3 2 3 3 2 2 1 1 1 1 3 3 3 4 5 4 4 5 5 6 3 3 11 10 3 4 2 6 20 26
8 6 2 8 5 5 5 4 4 3 2 1 3 4 5 4 3 3 3 1 2 2 2 3 3 1 2 2 3 2 2 4 6 6 3 5 13 9 6 9 9 24 26
8 6 8 8 7 6 4 2 1 2 3 5 5 5 5 4 5 4 3 2 3 3 3 2 1 1 2 2 4 5 4 2 4 6 6 5 4 8 11 15 19 25 24
7 8 7 6 7 5 4 0 3 4 4 4 5 5 7 7 6 5 4 4 4 3 3 4 3 3 3 3 3 5 5 5 5 5 5 4 6 4 4 4 8 9 3
4 9 7 8 7 6 3 1 3 5 5 4 4 4 6 7 7 5 4 4 4 3 3 2 2 1 2 4 4 3 5 5 6 5 6 6 4 3 1 4 4 3 2
5 7 9 6 7 5 3 3 3 4 4 3 3 4 6 4 6 5 4 5 5 3 3 2 1 1 2 3 4 4 5 4 5 5 5 4 5 3 3 3 2 3 7
5 7 7 7 3 3 3 2 3 3 2 2 3 3 5 5 5 5 4 5 4 4 4 4 3 1 2 3 3 4 3 6 6 4 4 4 5 2 0 4 2 3 3
4 5 6 7 4 6 4 2 2 2 2 2 1 2 3 3 4 5 6 5 6 4 5 3 1 1 1 2 1 1 4 5 3 4 3 3 4 2 4 4 5 6 4
5 6 6 6 7 7 3 2 1 1 2 3 3 3 4 5 5 3 2 2 2 1 1 1 1 2 1 1 2 2 2 3 5 2 3 1 4 2 3 4 6 7 9
7 6 7 6 7 5 6 3 3 3 2 3 2 1 4 5 5 6 5 5 5 3 4 2 1 1 2 2 2 1 1 3 2 5 3 4 4 2 3 2 3 6 6
6 6 5 7 7 6 5 3 3 2 3 1 2 3 3 4 6 6 6 6 5 4 3 4 3 2 1 2 2 1 2 2 4 4 4 4 4 3 3 3 4 3 5
5 6 7 8 5 3 3 4 5 4 2 1 2 3 4 3 4 5 5 5 5 3 2 2 2 2 2 3 3 3 3 2 2 2 2 0 3 3 3 3 5 4 5
Wind_Direction
200 156 142 133 126 124 122 116 104 94 86 83 79 74 72 69 68 67 65 61 66 57 52 47 43 43 44 42 42 55 64 68 74 80 91 94 81 137 121 121 112 107 104
159 159 146 143 137 133 129 122 118 113 108 99 89 81 74 70 65 58 53 49 43 41 38 33 28 24 19 16 12 17 20 25 30 38 101 118 126 132 135 134 125 121 116
160 158 147 145 134 131 128 127 121 110 100 95 90 80 70 62 59 57 50 44 45 41 35 26 15 9 3 358 354 349 359 3 358 341 320 209 196 168 156 148 136 132 129
155 158 143 143 139 135 131 129 124 118 114 109 102 96 85 74 67 54 36 23 10 356 347 344 339 338 338 337 336 332 333 339 338 328 322 286 216 193 183 168 149 139 137
135 122 154 144 140 138 134 131 131 132 135 129 110 91 100 94 321 300 304 305 307 304 305 309 310 309 312 317 319 321 323 325 328 337 317 283 220 197 198 188 167 146 145
139 152 159 151 144 143 142 145 148 153 142 127 117 180 249 283 293 300 298 291 289 296 304 305 303 304 308 308 304 307 310 310 317 4 312 303 218 190 200 200 189 158 152
155 166 163 164 154 155 157 157 157 156 156 166 188 243 274 288 287 278 274 276 282 286 282 283 285 286 288 292 297 296 293 303 314 338 322 304 279 219 199 208 208 176 160
159 166 168 170 162 166 171 172 175 183 189 198 227 254 272 274 274 277 278 277 274 276 276 275 280 285 284 280 278 278 283 295 308 308 304 270 261 252 200 193 212 195 174
154 151 173 178 180 185 185 187 196 206 204 209 242 258 268 279 285 281 277 283 283 271 280 287 283 271 270 273 269 271 273 281 280 307 317 302 299 299 198 208 215 201 184
150 153 167 181 194 202 212 206 207 214 227 227 244 262 277 293 293 291 282 301 282 280 289 286 300 292 284 272 272 271 266 267 153 247 316 300 269 199 203 209 240 227 199
132 141 173 170 216 224 220 239 221 223 225 234 253 269 314 5 7 3 325 319 324 333 339 336 340 2 348 341 272 252 293 187 220 248 308 299 321 129 159 156 246 250 222
135 167 175 169 217 228 244 209 224 247 238 257 269 223 109 88 82 56 36 20 11 356 9 35 25 17 8 354 287 302 331 313 281 307 286 316 298 324 259 217 214 234 219
130 104 137 135 207 210 292 159 224 253 265 298 211 186 120 84 66 66 47 22 13 38 32 31 20 18 13 6 356 309 337 298 293 293 286 275 265 243 315 297 276 253 229
108 128 100 107 101 93 90 73 102 96 121 193 233 145 134 128 146 133 90 58 58 65 46 33 30 48 59 54 23 347 353 338 302 224 243 282 302 245 226 253 302 320 288
320 160 136 123 112 102 85 91 122 126 122 184 247 293 246 206 220 195 233 142 154 170 111 65 57 56 64 54 38 20 347 325 315 282 268 287 293 267 259 175 267 294 282
168 220 178 119 106 89 68 43 41 33 135 234 284 304 293 289 262 236 255 238 239 228 190 116 136 97 74 91 353 352 269 304 296 282 281 284 301 303 321 275 252 267 274
149 184 182 127 114 93 76 58 16 350 355 1 338 341 338 274 239 237 257 308 306 323 334 42 122 58 17 337 329 312 319 238 270 295 296 269 298 290 280 285 272 269 268
136 159 198 121 122 125 126 202 337 12 18 22 9 350 359 5 356 5 5 8 347 3 25 26 28 10 6 351 318 305 314 314 300 266 259 244 255 307 269 277 308 283 226
153 152 142 130 144 160 159 65 10 46 41 28 30 22 23 25 26 29 13 346 342 356 31 20 29 82 1 320 316 327 315 300 298 312 304 285 287 256 227 135 111 162 332
202 142 139 162 168 176 90 76 58 60 50 52 39 59 39 31 34 30 353 338 324 329 325 337 305 257 195 274 339 319 305 299 290 288 297 320 323 263 78 229 314 302 291
215 152 169 148 187 115 73 76 31 12 330 25 37 63 37 30 13 348 316 299 285 283 275 287 285 1 334 15 37 332 290 275 289 276 297 344 345 345 199 44 308 293 325
188 176 103 103 146 102 108 116 139 214 234 217 298 337 17 349 340 346 333 320 311 300 304 310 86 45 310 55 130 253 324 310 317 331 333 353 13 349 26 32 13 6 332
135 147 155 152 132 105 139 170 185 242 0 358 333 314 332 338 352 15 330 288 337 53 1 327 236 138 182 311 85 212 331 285 335 311 315 310 339 33 58 30 15 358 345
180 175 181 144 116 173 175 163 172 186 218 242 241 309 316 344 333 316 304 297 287 283 285 275 349 25 80 308 324 33 314 260 296 319 339 323 307 60 93 64 47 20 353
165 162 140 144 187 200 189 155 150 206 229 289 301 321 314 299 303 305 312 311 300 295 299 333 341 350 160 194 179 218 260 263 233 241 303 329 331 342 36 22 63 36 26
151 144 166 181 200 179 148 179 188 206 242 280 290 275 288 287 288 292 296 312 306 297 296 293 338 322 268 230 215 217 193 217 256 250 288 334 269 305 32 23 46 62 38